Time,TemperatureF,DewpointF,PressureIn,WindDirection,WindDirectionDegrees,WindSpeedMPH,WindSpeedGustMPH,Humidity,HourlyPrecipIn,Conditions,Clouds,dailyrainin,SoftwareType,DateUTC
2013-06-08 00:05:00,58.4,57.6,29.88,NE,44,0.0,0.0,97,0.00,,,0.00,Wunderground v.1.15,2013-06-08 04:05:00,
2013-06-08 00:10:00,58.4,57.8,29.88,NE,44,0.0,0.0,98,0.00,,,0.00,Wunderground v.1.15,2013-06-08 04:10:00,
2013-06-08 00:15:00,58.4,57.8,29.88,NNW,330,0.0,1.0,98,0.00,,,0.00,Wunderground v.1.15,2013-06-08 04:15:00,
2013-06-08 00:20:00,58.4,57.8,29.88,NNW,337,0.0,1.0,98,0.00,,,0.00,Wunderground v.1.15,2013-06-08 04:20:00,
2013-06-08 00:25:00,58.3,57.7,29.88,NNW,337,0.0,0.0,98,0.00,,,0.00,Wunderground v.1.15,2013-06-08 04:25:00,
2013-06-08 00:30:00,58.3,57.7,29.88,NNW,338,0.0,1.0,98,0.00,,,0.00,Wunderground v.1.15,2013-06-08 04:30:00,
2013-06-08 00:35:00,58.3,57.7,29.88,NNW,340,0.0,0.0,98,0.00,,,0.00,Wunderground v.1.15,2013-06-08 04:35:00,
2013-06-08 00:40:00,58.3,57.7,29.88,North,360,0.0,0.0,98,0.00,,,0.00,Wunderground v.1.15,2013-06-08 04:40:00,
2013-06-08 00:45:00,58.2,57.6,29.88,North,360,0.0,0.0,98,0.00,,,0.00,Wunderground v.1.15,2013-06-08 04:45:00,
2013-06-08 00:50:00,58.1,57.5,29.88,NE,49,0.0,0.0,98,0.00,,,0.00,Wunderground v.1.15,2013-06-08 04:50:00,
2013-06-08 00:55:00,58.1,57.5,29.88,North,7,0.0,1.0,98,0.00,,,0.00,Wunderground v.1.15,2013-06-08 04:55:00,
2013-06-08 01:05:00,58.1,57.5,29.88,North,350,0.0,0.0,98,0.00,,,0.00,Wunderground v.1.15,2013-06-08 05:05:00,
2013-06-08 01:10:00,58.1,57.5,29.88,NNW,330,0.0,0.0,98,0.00,,,0.00,Wunderground v.1.15,2013-06-08 05:10:00,
2013-06-08 01:15:00,58.1,57.5,29.88,NNW,330,0.0,0.0,98,0.00,,,0.00,Wunderground v.1.15,2013-06-08 05:15:00,
2013-06-08 01:20:00,58.1,57.5,29.87,NNW,330,0.0,0.0,98,0.00,,,0.00,Wunderground v.1.15,2013-06-08 05:20:00,
2013-06-08 01:30:00,58.1,57.5,29.87,NNW,335,0.0,0.0,98,0.00,,,0.00,Wunderground v.1.15,2013-06-08 05:30:00,
2013-06-08 01:35:00,58.1,57.5,29.87,NNW,333,0.0,1.0,98,0.00,,,0.00,Wunderground v.1.15,2013-06-08 05:35:00,
2013-06-08 01:40:00,58.1,57.5,29.87,NNE,17,1.0,1.0,98,0.00,,,0.00,Wunderground v.1.15,2013-06-08 05:40:00,
2013-06-08 01:50:00,58.0,57.4,29.87,NNW,346,1.0,1.0,98,0.00,,,0.00,Wunderground v.1.15,2013-06-08 05:50:00,
2013-06-08 01:55:00,58.0,57.4,29.87,NNW,335,0.0,0.0,98,0.00,,,0.00,Wunderground v.1.15,2013-06-08 05:55:00,
2013-06-08 02:05:00,57.9,57.3,29.87,North,354,0.0,0.0,98,0.00,,,0.00,Wunderground v.1.15,2013-06-08 06:05:00,
2013-06-08 02:10:00,57.9,57.3,29.87,NNW,340,0.0,0.0,98,0.00,,,0.00,Wunderground v.1.15,2013-06-08 06:10:00,
2013-06-08 02:15:00,57.8,57.2,29.86,NNW,343,0.0,0.0,98,0.00,,,0.00,Wunderground v.1.15,2013-06-08 06:15:00,
2013-06-08 02:20:00,57.8,57.2,29.86,NNW,342,0.0,0.0,98,0.00,,,0.00,Wunderground v.1.15,2013-06-08 06:20:00,
2013-06-08 02:30:00,57.8,57.2,29.86,NNE,18,0.0,0.0,98,0.00,,,0.00,Wunderground v.1.15,2013-06-08 06:30:00,
2013-06-08 02:35:00,57.7,57.1,29.87,ENE,70,0.0,0.0,98,0.00,,,0.00,Wunderground v.1.15,2013-06-08 06:35:00,
2013-06-08 02:40:00,57.7,57.1,29.87,North,5,0.0,0.0,98,0.00,,,0.00,Wunderground v.1.15,2013-06-08 06:40:00,
2013-06-08 02:50:00,57.7,57.1,29.87,NW,321,0.0,0.0,98,0.00,,,0.00,Wunderground v.1.15,2013-06-08 06:50:00,
2013-06-08 02:55:00,57.6,57.0,29.87,North,350,0.0,0.0,98,0.00,,,0.00,Wunderground v.1.15,2013-06-08 06:55:00,
2013-06-08 03:05:00,57.6,57.0,29.87,ENE,75,0.0,0.0,98,0.00,,,0.00,Wunderground v.1.15,2013-06-08 07:05:00,
2013-06-08 03:10:00,57.6,57.0,29.87,NW,326,0.0,0.0,98,0.00,,,0.00,Wunderground v.1.15,2013-06-08 07:10:00,
2013-06-08 03:15:00,57.6,57.0,29.87,NW,326,0.0,0.0,98,0.00,,,0.00,Wunderground v.1.15,2013-06-08 07:15:00,
2013-06-08 03:25:00,57.6,57.0,29.87,NW,325,0.0,0.0,98,0.00,,,0.00,Wunderground v.1.15,2013-06-08 07:25:00,
2013-06-08 03:30:00,57.6,57.0,29.87,NW,319,0.0,0.0,98,0.00,,,0.00,Wunderground v.1.15,2013-06-08 07:30:00,
2013-06-08 03:35:00,57.6,57.0,29.87,NNW,338,0.0,1.0,98,0.00,,,0.00,Wunderground v.1.15,2013-06-08 07:35:00,
2013-06-08 03:45:00,57.5,57.2,29.87,North,349,0.0,0.0,99,0.00,,,0.00,Wunderground v.1.15,2013-06-08 07:45:00,
2013-06-08 03:50:00,57.4,56.8,29.87,ENE,58,0.0,0.0,98,0.00,,,0.00,Wunderground v.1.15,2013-06-08 07:50:00,
2013-06-08 03:55:00,57.4,57.1,29.87,NW,319,0.0,1.0,99,0.00,,,0.00,Wunderground v.1.15,2013-06-08 07:55:00,
2013-06-08 04:05:00,57.3,57.0,29.88,NW,317,0.0,1.0,99,0.00,,,0.00,Wunderground v.1.15,2013-06-08 08:05:00,
2013-06-08 04:10:00,57.2,56.9,29.88,NNW,328,1.0,1.0,99,0.00,,,0.00,Wunderground v.1.15,2013-06-08 08:10:00,
2013-06-08 04:15:00,57.2,56.9,29.88,NW,321,1.0,2.0,99,0.00,,,0.00,Wunderground v.1.15,2013-06-08 08:15:00,
2013-06-08 04:25:00,57.1,56.8,29.89,NW,306,0.0,0.0,99,0.00,,,0.00,Wunderground v.1.15,2013-06-08 08:25:00,
2013-06-08 04:30:00,57.1,56.8,29.89,NNW,328,0.0,0.0,99,0.00,,,0.00,Wunderground v.1.15,2013-06-08 08:30:00,
2013-06-08 04:35:00,57.0,56.7,29.89,NNW,333,0.0,0.0,99,0.00,,,0.00,Wunderground v.1.15,2013-06-08 08:35:00,
2013-06-08 04:45:00,57.0,56.7,29.89,NW,319,0.0,1.0,99,0.00,,,0.00,Wunderground v.1.15,2013-06-08 08:45:00,
2013-06-08 04:50:00,56.9,56.6,29.89,NNW,341,0.0,1.0,99,0.00,,,0.00,Wunderground v.1.15,2013-06-08 08:50:00,
2013-06-08 04:55:00,56.9,56.6,29.89,NNW,327,1.0,1.0,99,0.00,,,0.00,Wunderground v.1.15,2013-06-08 08:55:00,
2013-06-08 05:05:00,56.9,56.6,29.90,NNW,333,0.0,2.0,99,0.00,,,0.00,Wunderground v.1.15,2013-06-08 09:05:00,
2013-06-08 05:10:00,56.8,56.5,29.90,NW,326,1.0,2.0,99,0.00,,,0.00,Wunderground v.1.15,2013-06-08 09:10:00,
2013-06-08 05:15:00,56.8,56.5,29.90,NNW,337,0.0,0.0,99,0.00,,,0.00,Wunderground v.1.15,2013-06-08 09:15:00,
2013-06-08 05:25:00,56.8,56.5,29.90,NNW,330,0.0,1.0,99,0.00,,,0.01,Wunderground v.1.15,2013-06-08 09:25:00,
2013-06-08 05:30:00,56.7,56.4,29.91,NW,323,1.0,1.0,99,0.00,,,0.01,Wunderground v.1.15,2013-06-08 09:30:00,
2013-06-08 05:35:00,56.7,56.4,29.91,NW,324,1.0,1.0,99,0.00,,,0.01,Wunderground v.1.15,2013-06-08 09:35:00,
2013-06-08 05:45:00,56.6,56.3,29.91,North,352,0.0,0.0,99,0.00,,,0.01,Wunderground v.1.15,2013-06-08 09:45:00,
2013-06-08 05:50:00,56.6,56.3,29.91,NNW,330,0.0,0.0,99,0.00,,,0.01,Wunderground v.1.15,2013-06-08 09:50:00,
2013-06-08 05:55:00,56.6,56.3,29.92,NNW,327,0.0,0.0,99,0.00,,,0.01,Wunderground v.1.15,2013-06-08 09:55:00,
2013-06-08 06:05:00,56.7,56.4,29.92,NW,308,0.0,0.0,99,0.00,,,0.01,Wunderground v.1.15,2013-06-08 10:05:00,
2013-06-08 06:10:00,56.6,56.3,29.93,NW,318,0.0,1.0,99,0.00,,,0.01,Wunderground v.1.15,2013-06-08 10:10:00,
2013-06-08 06:15:00,56.7,56.4,29.93,North,356,0.0,0.0,99,0.00,,,0.01,Wunderground v.1.15,2013-06-08 10:15:00,
2013-06-08 06:25:00,56.7,56.4,29.93,NW,316,0.0,0.0,99,0.00,,,0.01,Wunderground v.1.15,2013-06-08 10:25:00,
2013-06-08 06:30:00,56.8,56.5,29.94,NW,316,0.0,0.0,99,0.00,,,0.01,Wunderground v.1.15,2013-06-08 10:30:00,
2013-06-08 06:35:00,56.8,56.5,29.94,NW,318,0.0,0.0,99,0.00,,,0.01,Wunderground v.1.15,2013-06-08 10:35:00,
2013-06-08 06:40:00,56.8,56.5,29.94,WSW,253,0.0,0.0,99,0.00,,,0.01,Wunderground v.1.15,2013-06-08 10:40:00,
2013-06-08 06:50:00,56.8,56.5,29.94,NNW,329,0.0,0.0,99,0.00,,,0.01,Wunderground v.1.15,2013-06-08 10:50:00,
2013-06-08 06:55:00,56.9,56.6,29.95,NNW,330,0.0,0.0,99,0.00,,,0.01,Wunderground v.1.15,2013-06-08 10:55:00,
2013-06-08 07:05:00,57.1,56.8,29.95,West,274,0.0,0.0,99,0.00,,,0.01,Wunderground v.1.15,2013-06-08 11:05:00,
2013-06-08 07:10:00,57.1,56.8,29.95,West,275,0.0,0.0,99,0.00,,,0.01,Wunderground v.1.15,2013-06-08 11:10:00,
2013-06-08 07:15:00,57.2,56.9,29.95,WNW,282,0.0,0.0,99,0.00,,,0.01,Wunderground v.1.15,2013-06-08 11:15:00,
2013-06-08 07:25:00,57.1,56.8,29.96,West,278,0.0,0.0,99,0.00,,,0.01,Wunderground v.1.15,2013-06-08 11:25:00,
2013-06-08 07:30:00,57.0,56.4,29.96,NW,311,0.0,0.0,98,0.00,,,0.01,Wunderground v.1.15,2013-06-08 11:30:00,
2013-06-08 07:35:00,57.1,56.8,29.96,NE,54,0.0,0.0,99,0.00,,,0.01,Wunderground v.1.15,2013-06-08 11:35:00,
2013-06-08 07:40:00,57.2,56.9,29.96,NNE,16,0.0,0.0,99,0.00,,,0.01,Wunderground v.1.15,2013-06-08 11:40:00,
2013-06-08 07:50:00,57.4,57.1,29.96,WNW,292,0.0,1.0,99,0.00,,,0.01,Wunderground v.1.15,2013-06-08 11:50:00,
2013-06-08 07:55:00,57.4,56.8,29.97,West,276,0.0,0.0,98,0.00,,,0.01,Wunderground v.1.15,2013-06-08 11:55:00,
2013-06-08 08:05:00,57.7,57.1,29.97,WNW,298,0.0,0.0,98,0.00,,,0.01,Wunderground v.1.15,2013-06-08 12:05:00,
2013-06-08 08:10:00,57.6,57.0,29.97,West,278,0.0,0.0,98,0.00,,,0.01,Wunderground v.1.15,2013-06-08 12:10:00,
2013-06-08 08:15:00,57.6,57.0,29.97,WNW,299,0.0,0.0,98,0.00,,,0.01,Wunderground v.1.15,2013-06-08 12:15:00,
2013-06-08 08:20:00,57.8,57.2,29.97,WSW,258,0.0,1.0,98,0.00,,,0.01,Wunderground v.1.15,2013-06-08 12:20:00,
2013-06-08 08:30:00,57.9,57.1,29.98,WSW,243,1.0,1.0,97,0.00,,,0.01,Wunderground v.1.15,2013-06-08 12:30:00,
2013-06-08 08:35:00,57.9,57.1,29.98,NW,304,0.0,0.0,97,0.00,,,0.01,Wunderground v.1.15,2013-06-08 12:35:00,
2013-06-08 08:40:00,57.9,57.1,29.98,WNW,283,0.0,0.0,97,0.00,,,0.01,Wunderground v.1.15,2013-06-08 12:40:00,
2013-06-08 08:50:00,58.1,57.5,29.99,West,272,0.0,0.0,98,0.00,,,0.01,Wunderground v.1.15,2013-06-08 12:50:00,
2013-06-08 08:55:00,58.2,57.4,29.99,WNW,288,0.0,0.0,97,0.00,,,0.01,Wunderground v.1.15,2013-06-08 12:55:00,
2013-06-08 09:05:00,58.4,57.6,29.99,South,170,0.0,1.0,97,0.00,,,0.01,Wunderground v.1.15,2013-06-08 13:05:00,
2013-06-08 09:10:00,58.4,57.6,30.00,WNW,300,1.0,1.0,97,0.00,,,0.01,Wunderground v.1.15,2013-06-08 13:10:00,
2013-06-08 09:15:00,58.3,57.5,30.00,WNW,283,1.0,1.0,97,0.00,,,0.01,Wunderground v.1.15,2013-06-08 13:15:00,
2013-06-08 09:25:00,58.3,57.5,30.00,WNW,300,1.0,1.0,97,0.00,,,0.01,Wunderground v.1.15,2013-06-08 13:25:00,
2013-06-08 09:30:00,58.4,57.6,30.00,SW,224,0.0,1.0,97,0.00,,,0.01,Wunderground v.1.15,2013-06-08 13:30:00,
2013-06-08 09:35:00,58.8,58.0,30.00,West,268,0.0,2.0,97,0.00,,,0.01,Wunderground v.1.15,2013-06-08 13:35:00,
2013-06-08 09:40:00,59.0,57.9,30.00,West,259,1.0,2.0,96,0.00,,,0.01,Wunderground v.1.15,2013-06-08 13:40:00,
2013-06-08 09:50:00,59.4,58.0,30.00,SSW,202,1.0,1.0,95,0.00,,,0.01,Wunderground v.1.15,2013-06-08 13:50:00,
2013-06-08 09:55:00,59.7,58.6,30.00,WNW,297,1.0,1.0,96,0.00,,,0.01,Wunderground v.1.15,2013-06-08 13:55:00,
2013-06-08 10:05:00,60.1,58.4,30.00,NNW,334,1.0,1.0,94,0.00,,,0.01,Wunderground v.1.15,2013-06-08 14:05:00,
2013-06-08 10:10:00,60.4,58.7,30.00,WNW,301,1.0,1.0,94,0.00,,,0.01,Wunderground v.1.15,2013-06-08 14:10:00,
2013-06-08 10:15:00,60.7,58.7,30.00,NW,324,1.0,1.0,93,0.00,,,0.01,Wunderground v.1.15,2013-06-08 14:15:00,
2013-06-08 10:25:00,60.9,58.6,30.00,ESE,121,1.0,1.0,92,0.00,,,0.01,Wunderground v.1.15,2013-06-08 14:25:00,
2013-06-08 10:30:00,60.9,58.3,30.00,WNW,283,1.0,1.0,91,0.00,,,0.01,Wunderground v.1.15,2013-06-08 14:30:00,
2013-06-08 10:35:00,60.7,58.4,30.00,WNW,290,1.0,1.0,92,0.00,,,0.01,Wunderground v.1.15,2013-06-08 14:35:00,
2013-06-08 10:40:00,60.6,58.3,30.00,NNW,339,1.0,3.0,92,0.00,,,0.01,Wunderground v.1.15,2013-06-08 14:40:00,
2013-06-08 10:50:00,61.0,59.0,30.00,West,280,1.0,1.0,93,0.00,,,0.01,Wunderground v.1.15,2013-06-08 14:50:00,
2013-06-08 10:55:00,61.1,58.5,30.00,NNW,330,1.0,1.0,91,0.00,,,0.01,Wunderground v.1.15,2013-06-08 14:55:00,
2013-06-08 11:05:00,61.3,58.3,30.00,NNW,336,1.0,2.0,90,0.00,,,0.01,Wunderground v.1.15,2013-06-08 15:05:00,
2013-06-08 11:10:00,61.1,58.1,30.00,WNW,290,1.0,2.0,90,0.00,,,0.01,Wunderground v.1.15,2013-06-08 15:10:00,
2013-06-08 11:15:00,61.0,58.7,30.00,NW,311,2.0,2.0,92,0.00,,,0.01,Wunderground v.1.15,2013-06-08 15:15:00,
2013-06-08 11:20:00,61.1,58.1,30.01,NW,321,1.0,2.0,90,0.00,,,0.01,Wunderground v.1.15,2013-06-08 15:20:00,
2013-06-08 11:30:00,61.3,58.3,30.02,NNW,343,1.0,3.0,90,0.00,,,0.01,Wunderground v.1.15,2013-06-08 15:30:00,
2013-06-08 11:35:00,61.1,58.1,30.02,NNW,328,1.0,1.0,90,0.00,,,0.01,Wunderground v.1.15,2013-06-08 15:35:00,
2013-06-08 11:40:00,61.1,58.1,30.03,West,273,1.0,1.0,90,0.00,,,0.01,Wunderground v.1.15,2013-06-08 15:40:00,
2013-06-08 11:50:00,60.7,57.7,30.03,WNW,302,2.0,3.0,90,0.00,,,0.01,Wunderground v.1.15,2013-06-08 15:50:00,
2013-06-08 11:55:00,60.7,58.1,30.03,WSW,258,1.0,2.0,91,0.00,,,0.01,Wunderground v.1.15,2013-06-08 15:55:00,
2013-06-08 12:05:00,61.0,58.0,30.04,WSW,253,1.0,1.0,90,0.00,,,0.01,Wunderground v.1.15,2013-06-08 16:05:00,
2013-06-08 12:10:00,61.1,58.1,30.04,WNW,289,1.0,1.0,90,0.00,,,0.01,Wunderground v.1.15,2013-06-08 16:10:00,
2013-06-08 12:15:00,61.2,58.6,30.04,ENE,66,1.0,1.0,91,0.00,,,0.01,Wunderground v.1.15,2013-06-08 16:15:00,
2013-06-08 12:25:00,61.2,58.2,30.04,WNW,288,1.0,1.0,90,0.00,,,0.01,Wunderground v.1.15,2013-06-08 16:25:00,
2013-06-08 12:30:00,61.3,58.0,30.04,WSW,240,1.0,2.0,89,0.00,,,0.01,Wunderground v.1.15,2013-06-08 16:30:00,
2013-06-08 12:35:00,61.3,58.0,30.04,WNW,285,1.0,1.0,89,0.00,,,0.01,Wunderground v.1.15,2013-06-08 16:35:00,
2013-06-08 12:40:00,61.4,58.7,30.04,WNW,288,1.0,1.0,91,0.00,,,0.01,Wunderground v.1.15,2013-06-08 16:40:00,
2013-06-08 12:50:00,61.8,58.5,30.04,SW,229,0.0,0.0,89,0.00,,,0.01,Wunderground v.1.15,2013-06-08 16:50:00,
2013-06-08 12:55:00,62.8,59.8,30.03,NNW,339,0.0,0.0,90,0.00,,,0.01,Wunderground v.1.15,2013-06-08 16:55:00,
2013-06-08 13:05:00,63.9,59.3,30.04,NNW,345,1.0,2.0,85,0.00,,,0.01,Wunderground v.1.15,2013-06-08 17:05:00,
2013-06-08 13:10:00,64.2,59.6,30.04,WSW,239,1.0,2.0,85,0.00,,,0.01,Wunderground v.1.15,2013-06-08 17:10:00,
2013-06-08 13:15:00,64.1,59.2,30.03,NW,318,1.0,1.0,84,0.00,,,0.01,Wunderground v.1.15,2013-06-08 17:15:00,
2013-06-08 13:25:00,64.0,59.1,30.04,NNW,345,0.0,0.0,84,0.00,,,0.01,Wunderground v.1.15,2013-06-08 17:25:00,
2013-06-08 13:30:00,64.3,59.7,30.04,NNW,335,0.0,1.0,85,0.00,,,0.01,Wunderground v.1.15,2013-06-08 17:30:00,
2013-06-08 13:35:00,64.4,59.5,30.04,NW,304,0.0,1.0,84,0.00,,,0.01,Wunderground v.1.15,2013-06-08 17:35:00,
2013-06-08 13:45:00,63.8,58.9,30.04,SSW,205,0.0,1.0,84,0.00,,,0.01,Wunderground v.1.15,2013-06-08 17:45:00,
2013-06-08 13:50:00,63.9,59.3,30.04,SW,226,0.0,1.0,85,0.00,,,0.01,Wunderground v.1.15,2013-06-08 17:50:00,
2013-06-08 13:55:00,63.7,59.1,30.05,WNW,287,0.0,1.0,85,0.00,,,0.01,Wunderground v.1.15,2013-06-08 17:55:00,
2013-06-08 14:05:00,63.3,59.7,30.05,NW,326,0.0,0.0,88,0.00,,,0.01,Wunderground v.1.15,2013-06-08 18:05:00,
2013-06-08 14:10:00,63.2,59.3,30.05,NW,326,0.0,0.0,87,0.00,,,0.01,Wunderground v.1.15,2013-06-08 18:10:00,
2013-06-08 14:15:00,63.1,59.8,30.05,SW,230,0.0,1.0,89,0.00,,,0.01,Wunderground v.1.15,2013-06-08 18:15:00,
2013-06-08 14:25:00,62.7,59.7,30.05,North,356,0.0,0.0,90,0.00,,,0.02,Wunderground v.1.15,2013-06-08 18:25:00,
2013-06-08 14:30:00,62.7,60.0,30.05,NW,324,0.0,0.0,91,0.00,,,0.02,Wunderground v.1.15,2013-06-08 18:30:00,
2013-06-08 14:35:00,62.7,60.0,30.05,NNW,341,0.0,0.0,91,0.00,,,0.02,Wunderground v.1.15,2013-06-08 18:35:00,
2013-06-08 14:45:00,62.9,59.6,30.05,ENE,64,0.0,0.0,89,0.00,,,0.02,Wunderground v.1.15,2013-06-08 18:45:00,
2013-06-08 14:50:00,63.2,60.2,30.05,SE,136,0.0,0.0,90,0.00,,,0.02,Wunderground v.1.15,2013-06-08 18:50:00,
2013-06-08 14:55:00,63.7,60.4,30.06,NW,307,0.0,0.0,89,0.00,,,0.02,Wunderground v.1.15,2013-06-08 18:55:00,
2013-06-08 15:05:00,64.0,60.1,30.06,WNW,283,0.0,1.0,87,0.00,,,0.02,Wunderground v.1.15,2013-06-08 19:05:00,
2013-06-08 15:10:00,64.1,60.2,30.06,West,259,0.0,1.0,87,0.00,,,0.02,Wunderground v.1.15,2013-06-08 19:10:00,
2013-06-08 15:20:00,63.9,59.6,30.06,NW,321,0.0,1.0,86,0.00,,,0.02,Wunderground v.1.15,2013-06-08 19:20:00,
2013-06-08 15:25:00,63.8,59.2,30.07,NNW,327,1.0,1.0,85,0.00,,,0.02,Wunderground v.1.15,2013-06-08 19:25:00,
2013-06-08 15:30:00,63.6,59.3,30.07,NW,326,1.0,1.0,86,0.00,,,0.02,Wunderground v.1.15,2013-06-08 19:30:00,
2013-06-08 15:35:00,63.4,59.5,30.07,NNW,348,1.0,1.0,87,0.00,,,0.02,Wunderground v.1.15,2013-06-08 19:35:00,
2013-06-08 15:40:00,63.1,59.2,30.07,WNW,283,1.0,3.0,87,0.00,,,0.02,Wunderground v.1.15,2013-06-08 19:40:00,
2013-06-08 15:50:00,62.8,59.2,30.07,West,269,1.0,1.0,88,0.00,,,0.02,Wunderground v.1.15,2013-06-08 19:50:00,
2013-06-08 15:55:00,63.0,59.7,30.07,WSW,255,0.0,0.0,89,0.00,,,0.02,Wunderground v.1.15,2013-06-08 19:55:00,
2013-06-08 16:05:00,63.5,60.2,30.07,West,272,0.0,0.0,89,0.00,,,0.02,Wunderground v.1.15,2013-06-08 20:05:00,
2013-06-08 16:10:00,63.7,60.1,30.07,NW,317,0.0,1.0,88,0.00,,,0.02,Wunderground v.1.15,2013-06-08 20:10:00,
2013-06-08 16:15:00,63.5,59.2,30.08,North,352,0.0,3.0,86,0.00,,,0.02,Wunderground v.1.15,2013-06-08 20:15:00,
2013-06-08 16:25:00,62.5,58.9,30.08,NW,319,2.0,2.0,88,0.00,,,0.02,Wunderground v.1.15,2013-06-08 20:25:00,
2013-06-08 16:30:00,62.1,59.1,30.08,NNW,347,1.0,2.0,90,0.00,,,0.02,Wunderground v.1.15,2013-06-08 20:30:00,
2013-06-08 16:35:00,61.8,59.1,30.08,NNW,333,1.0,1.0,91,0.00,,,0.02,Wunderground v.1.15,2013-06-08 20:35:00,
2013-06-08 16:45:00,61.6,59.6,30.08,NNW,329,1.0,1.0,93,0.00,,,0.02,Wunderground v.1.15,2013-06-08 20:45:00,
2013-06-08 16:50:00,61.7,59.7,30.08,NW,321,0.0,1.0,93,0.00,,,0.02,Wunderground v.1.15,2013-06-08 20:50:00,
2013-06-08 16:55:00,62.1,59.7,30.08,NW,310,0.0,0.0,92,0.00,,,0.02,Wunderground v.1.15,2013-06-08 20:55:00,
2013-06-08 17:05:00,63.1,60.1,30.08,WSW,248,0.0,0.0,90,0.00,,,0.02,Wunderground v.1.15,2013-06-08 21:05:00,
2013-06-08 17:10:00,63.5,60.2,30.08,West,278,1.0,1.0,89,0.00,,,0.02,Wunderground v.1.15,2013-06-08 21:10:00,
2013-06-08 17:15:00,63.8,60.5,30.08,SW,232,1.0,2.0,89,0.00,,,0.02,Wunderground v.1.15,2013-06-08 21:15:00,
2013-06-08 17:25:00,64.3,61.0,30.08,West,265,1.0,1.0,89,0.00,,,0.02,Wunderground v.1.15,2013-06-08 21:25:00,
2013-06-08 17:30:00,64.5,59.9,30.08,WSW,244,1.0,1.0,85,0.00,,,0.02,Wunderground v.1.15,2013-06-08 21:30:00,
2013-06-08 17:35:00,64.7,60.1,30.08,ENE,72,1.0,1.0,85,0.00,,,0.02,Wunderground v.1.15,2013-06-08 21:35:00,
2013-06-08 17:40:00,65.3,59.7,30.08,WNW,284,1.0,1.0,82,0.00,,,0.02,Wunderground v.1.15,2013-06-08 21:40:00,
2013-06-08 17:50:00,65.1,59.8,30.08,West,281,1.0,1.0,83,0.00,,,0.02,Wunderground v.1.15,2013-06-08 21:50:00,
2013-06-08 17:55:00,65.2,59.9,30.08,West,271,1.0,1.0,83,0.00,,,0.02,Wunderground v.1.15,2013-06-08 21:55:00,
2013-06-08 18:05:00,65.1,59.5,30.08,NNW,347,1.0,1.0,82,0.00,,,0.02,Wunderground v.1.15,2013-06-08 22:05:00,
2013-06-08 18:10:00,65.2,59.2,30.08,NNW,344,0.0,1.0,81,0.00,,,0.02,Wunderground v.1.15,2013-06-08 22:10:00,
2013-06-08 18:15:00,65.1,58.8,30.08,SW,220,0.0,0.0,80,0.00,,,0.02,Wunderground v.1.15,2013-06-08 22:15:00,
2013-06-08 18:20:00,65.0,58.3,30.08,NW,307,1.0,1.0,79,0.00,,,0.02,Wunderground v.1.15,2013-06-08 22:20:00,
2013-06-08 18:30:00,64.9,57.9,30.08,West,262,1.0,1.0,78,0.00,,,0.02,Wunderground v.1.15,2013-06-08 22:30:00,
2013-06-08 18:35:00,64.7,58.0,30.08,WSW,257,1.0,1.0,79,0.00,,,0.02,Wunderground v.1.15,2013-06-08 22:35:00,
2013-06-08 18:40:00,64.7,58.0,30.08,West,276,0.0,1.0,79,0.00,,,0.02,Wunderground v.1.15,2013-06-08 22:40:00,
2013-06-08 18:45:00,64.7,58.0,30.09,WNW,285,0.0,0.0,79,0.00,,,0.02,Wunderground v.1.15,2013-06-08 22:45:00,
2013-06-08 18:55:00,64.5,58.2,30.09,SW,226,0.0,2.0,80,0.00,,,0.02,Wunderground v.1.15,2013-06-08 22:55:00,
2013-06-08 19:05:00,64.6,58.6,30.09,WNW,283,0.0,0.0,81,0.00,,,0.02,Wunderground v.1.15,2013-06-08 23:05:00,
2013-06-08 19:10:00,64.5,58.2,30.09,WNW,282,0.0,0.0,80,0.00,,,0.02,Wunderground v.1.15,2013-06-08 23:10:00,
2013-06-08 19:15:00,64.3,57.6,30.09,WNW,283,0.0,0.0,79,0.00,,,0.02,Wunderground v.1.15,2013-06-08 23:15:00,
2013-06-08 19:20:00,64.3,58.0,30.10,West,277,0.0,0.0,80,0.00,,,0.02,Wunderground v.1.15,2013-06-08 23:20:00,
2013-06-08 19:30:00,64.0,57.7,30.10,South,176,0.0,1.0,80,0.00,,,0.02,Wunderground v.1.15,2013-06-08 23:30:00,
2013-06-08 19:35:00,63.9,57.6,30.10,West,259,0.0,0.0,80,0.00,,,0.02,Wunderground v.1.15,2013-06-08 23:35:00,
2013-06-08 19:40:00,63.8,57.5,30.11,WNW,284,0.0,0.0,80,0.00,,,0.02,Wunderground v.1.15,2013-06-08 23:40:00,
2013-06-08 19:50:00,63.6,57.7,30.11,WNW,284,0.0,0.0,81,0.00,,,0.02,Wunderground v.1.15,2013-06-08 23:50:00,
2013-06-08 19:55:00,63.6,58.0,30.11,WNW,284,0.0,0.0,82,0.00,,,0.02,Wunderground v.1.15,2013-06-08 23:55:00,
2013-06-08 20:05:00,63.4,57.8,30.11,West,259,0.0,0.0,82,0.00,,,0.02,Wunderground v.1.15,2013-06-09 00:05:00,
2013-06-08 20:10:00,63.3,57.0,30.11,West,265,0.0,1.0,80,0.00,,,0.02,Wunderground v.1.15,2013-06-09 00:10:00,
2013-06-08 20:15:00,63.4,57.1,30.11,West,280,0.0,0.0,80,0.00,,,0.02,Wunderground v.1.15,2013-06-09 00:15:00,
2013-06-08 20:25:00,63.1,57.2,30.11,WSW,251,1.0,1.0,81,0.00,,,0.02,Wunderground v.1.15,2013-06-09 00:25:00,
2013-06-08 20:30:00,63.0,57.1,30.11,WNW,283,0.0,1.0,81,0.00,,,0.02,Wunderground v.1.15,2013-06-09 00:30:00,
2013-06-08 20:35:00,62.8,57.2,30.11,West,277,0.0,1.0,82,0.00,,,0.02,Wunderground v.1.15,2013-06-09 00:35:00,
2013-06-08 20:40:00,62.7,57.1,30.11,WNW,290,0.0,1.0,82,0.00,,,0.02,Wunderground v.1.15,2013-06-09 00:40:00,
2013-06-08 20:50:00,62.5,56.9,30.12,West,279,0.0,0.0,82,0.00,,,0.02,Wunderground v.1.15,2013-06-09 00:50:00,
2013-06-08 20:55:00,62.4,56.8,30.12,NNW,342,0.0,0.0,82,0.00,,,0.02,Wunderground v.1.15,2013-06-09 00:55:00,
2013-06-08 21:05:00,62.2,57.0,30.12,WNW,285,0.0,0.0,83,0.00,,,0.02,Wunderground v.1.15,2013-06-09 01:05:00,
2013-06-08 21:10:00,62.2,57.3,30.12,West,281,0.0,0.0,84,0.00,,,0.02,Wunderground v.1.15,2013-06-09 01:10:00,
2013-06-08 21:15:00,62.1,56.9,30.13,WNW,283,0.0,1.0,83,0.00,,,0.02,Wunderground v.1.15,2013-06-09 01:15:00,
2013-06-08 21:25:00,62.0,57.1,30.13,WNW,284,0.0,0.0,84,0.00,,,0.02,Wunderground v.1.15,2013-06-09 01:25:00,
2013-06-08 21:30:00,62.0,57.1,30.13,WNW,288,0.0,0.0,84,0.00,,,0.02,Wunderground v.1.15,2013-06-09 01:30:00,
2013-06-08 21:35:00,61.9,57.0,30.14,WSW,253,0.0,0.0,84,0.00,,,0.02,Wunderground v.1.15,2013-06-09 01:35:00,
2013-06-08 21:45:00,61.8,57.2,30.14,West,279,0.0,0.0,85,0.00,,,0.02,Wunderground v.1.15,2013-06-09 01:45:00,
2013-06-08 21:50:00,61.7,57.1,30.14,West,279,0.0,0.0,85,0.00,,,0.02,Wunderground v.1.15,2013-06-09 01:50:00,
2013-06-08 21:55:00,61.7,57.1,30.14,West,279,0.0,0.0,85,0.00,,,0.02,Wunderground v.1.15,2013-06-09 01:55:00,
2013-06-08 22:05:00,61.6,57.0,30.14,West,278,0.0,0.0,85,0.00,,,0.02,Wunderground v.1.15,2013-06-09 02:05:00,
2013-06-08 22:10:00,61.4,57.2,30.15,West,279,0.0,0.0,86,0.00,,,0.02,Wunderground v.1.15,2013-06-09 02:10:00,
2013-06-08 22:15:00,61.3,57.1,30.15,West,279,0.0,0.0,86,0.00,,,0.02,Wunderground v.1.15,2013-06-09 02:15:00,
2013-06-08 22:25:00,61.1,57.2,30.16,West,279,0.0,0.0,87,0.00,,,0.02,Wunderground v.1.15,2013-06-09 02:25:00,
2013-06-08 22:30:00,61.1,57.2,30.16,West,279,0.0,0.0,87,0.00,,,0.02,Wunderground v.1.15,2013-06-09 02:30:00,
2013-06-08 22:35:00,60.9,57.0,30.16,West,278,0.0,0.0,87,0.00,,,0.02,Wunderground v.1.15,2013-06-09 02:35:00,
2013-06-08 22:45:00,60.8,57.5,30.16,West,279,0.0,0.0,89,0.00,,,0.02,Wunderground v.1.15,2013-06-09 02:45:00,
2013-06-08 22:50:00,60.7,57.1,30.16,West,279,0.0,0.0,88,0.00,,,0.02,Wunderground v.1.15,2013-06-09 02:50:00,
2013-06-08 22:55:00,60.7,57.4,30.16,West,278,0.0,0.0,89,0.00,,,0.02,Wunderground v.1.15,2013-06-09 02:55:00,
2013-06-08 23:05:00,60.5,57.2,30.16,West,279,0.0,0.0,89,0.00,,,0.02,Wunderground v.1.15,2013-06-09 03:05:00,
2013-06-08 23:10:00,60.4,57.1,30.16,West,279,0.0,0.0,89,0.00,,,0.02,Wunderground v.1.15,2013-06-09 03:10:00,
2013-06-08 23:15:00,60.3,57.4,30.16,West,278,0.0,0.0,90,0.00,,,0.02,Wunderground v.1.15,2013-06-09 03:15:00,
2013-06-08 23:25:00,59.9,57.3,30.16,West,279,0.0,0.0,91,0.00,,,0.02,Wunderground v.1.15,2013-06-09 03:25:00,
2013-06-08 23:30:00,59.6,57.3,30.16,West,279,0.0,0.0,92,0.00,,,0.02,Wunderground v.1.15,2013-06-09 03:30:00,
2013-06-08 23:35:00,59.4,57.1,30.16,West,279,0.0,0.0,92,0.00,,,0.02,Wunderground v.1.15,2013-06-09 03:35:00,
2013-06-08 23:45:00,58.8,56.8,30.17,West,279,0.0,0.0,93,0.00,,,0.02,Wunderground v.1.15,2013-06-09 03:45:00,
2013-06-08 23:50:00,58.6,56.6,30.17,West,279,0.0,0.0,93,0.00,,,0.02,Wunderground v.1.15,2013-06-09 03:50:00,
2013-06-08 23:55:00,58.4,56.7,30.17,West,279,0.0,0.0,94,0.00,,,0.02,Wunderground v.1.15,2013-06-09 03:55:00,